Regional Weather Roundup
Issued by NWS

Home | Current Version | Previous Version | Graphics & Text | Print | Product List | Glossary On
Versions: 1 2 3 4 5 6 7 8 9 10 11 12 13 14 15 16 17 18 19 20 21 22 23 24 25 26 27 28 29 30 31 32 33 34 35 36 37 38 39 40 41 42 43 44 45 46 47 48 49 50
090
ASUS43 KOAX 291302
RWRNE

WEATHER ROUNDUP FOR NEBRASKA
NATIONAL WEATHER SERVICE OMAHA NE
800 AM CDT SUN MAY 29 2016

NOTES: SATELLITE DATA IS BEING USED TO AUGMENT CLOUD COVER ABOVE
       12000 FEET.
       "FAIR" INDICATES FEW OR NO CLOUDS BELOW 12,000 FEET WITH NO
       SIGNIFICANT WEATHER AND/OR OBSTRUCTIONS TO VISIBILITY.

  * THESE STATIONS DO NOT REPORT WEATHER SUCH AS RAIN...SNOW OR FOG.

NEZ001>004-019>022-054>056-291400-
NEBRASKA PANHANDLE

CITY           SKY/WX    TMP DP  RH WIND       PRES   REMARKS
SCOTTSBLUFF    SUNNY     50  45  83 NW7       30.12R
ALLIANCE       SUNNY     47  45  93 CALM      30.11R
CHADRON        SUNNY     46  42  86 CALM      30.10S
SIDNEY         SUNNY     50  46  86 CALM      30.14R
$$

NEZ057>060-069>072-079>082-291400-
SOUTHWEST NEBRASKA

CITY           SKY/WX    TMP DP  RH WIND       PRES   REMARKS
NORTH PLATTE   SUNNY     54  52  93 CALM      30.13R
IMPERIAL       SUNNY     56  51  84 NW5       30.13R
LEXINGTON      SUNNY     57  53  84 NW3       30.12S
MCCOOK         SUNNY     58  53  84 NE5       30.11R
$$

NEZ005>010-023>029-035>040-094-291400-
NORTH CENTRAL NEBRASKA

CITY           SKY/WX    TMP DP  RH WIND       PRES   REMARKS
VALENTINE      MOSUNNY   54  49  83 CALM      30.09S
AINSWORTH      SUNNY     57  52  81 W6        30.10R
BROKEN BOW     SUNNY     59  54  83 W5        30.11R
ORD            SUNNY     58  55  90 CALM      30.08R
$$

NEZ041-046>049-061>064-073>077-083>087-291400-
SOUTH CENTRAL NEBRASKA

CITY           SKY/WX    TMP DP  RH WIND       PRES   REMARKS
GRAND ISLAND   MOSUNNY   64  56  75 SW5       30.11R
AURORA         SUNNY     62  58  87 SW5       30.10R
HASTINGS       MOSUNNY   61  56  83 CALM      30.11R
KEARNEY *      MOSUNNY   59  52  77 SW3       30.12R
YORK           SUNNY     61  57  88 S3        30.10R
$$

NEZ011>018-030>034-042>045-291400-
NORTHEAST NEBRASKA

CITY           SKY/WX    TMP DP  RH WIND       PRES   REMARKS
NORFOLK        CLOUDY    61  56  83 CALM      30.07R
ALBION         SUNNY     60  56  86 CALM      30.09R
BLAIR          CLOUDY    60  58  94 CALM      30.08R
FREMONT        CLOUDY    59  58  96 CALM      30.08R
TEKAMAH        CLOUDY    59  55  87 CALM      30.07R
$$

NEZ050>053-065>068-078-088>093-291400-
SOUTHEAST NEBRASKA

CITY           SKY/WX    TMP DP  RH WIND       PRES   REMARKS
LINCOLN        CLOUDY    62  58  86 CALM      30.09R
OMAHA EPPLEY   CLOUDY    60  57  89 SE3       30.07R
BEATRICE       MOSUNNY   62  58  87 SW3       30.09R
FALLS CITY     SUNNY     64  61  90 S3        30.08R
NEBRASKA CITY  SUNNY     65  60  85 S5        30.08R
PLATTSMOUTH    PTSUNNY   64  60  85 CALM      30.07R
$$

NEZ044-045-051>053-067-291400-
OMAHA AREA

CITY           SKY/WX    TMP DP  RH WIND       PRES   REMARKS
OMAHA EPPLEY   CLOUDY    60  57  89 SE3       30.07R
BLAIR          CLOUDY    60  58  94 CALM      30.08R
FREMONT        CLOUDY    59  58  96 CALM      30.08R
OFFUTT AFB     PTSUNNY   61  61 100 SW1       30.07R
PLATTSMOUTH    PTSUNNY   64  60  85 CALM      30.07R
WAHOO          FAIR      62  57  84 CALM      30.08R
$$




USA.gov is the U.S. government's official web portal to all federal, state and local government web resources and services.